Flag for Canada Weather past 2 weeks in Kelowna, British Columbia, Canada

Now
43 °F

Partly cloudy.


Feels Like: 41 °F
Forecast: 42 / 65 °F
Wind: 3 mph from North

Location: Kelowna Airport

Current Time: Mar 30, 2015 at 6:40:06 AM

Latest Report: Mar 30, 2015 at 6:00 AM


Visibility: 9 mi

Pressure: 30.06 "Hg

Humidity: 87%

Dew point: 39 °F

Location of KelownaLocation

Historic Weather in Kelowna — Graph

°F

Kelowna temperature yesterday

Maximum temperature yesterday: 59 °F (at 2:00 PM)
Minimum temperature yesterday: 41 °F (at 2:00 AM)
Average temperature yesterday: 51 °F

Past Weeks' High & Low Weather Summary

 TemperatureHumidityPressure
High63 °F (Mar 27, 5:00 PM)100% (Mar 16, 1:00 AM)30.37 "Hg (Mar 16, 1:00 AM)
Low28 °F (Mar 16, 8:00 AM)23% (Mar 23, 4:00 PM)29.75 "Hg (Mar 28, 1:00 AM)
Average46 °F73%30.07 "Hg
* Reported Mar 15 5:00 AM — Mar 30 5:00 AM, Kelowna, Weather by CustomWeather, © 2015

Note: Actual official high and low records may vary slightly from our data, if they occured in-between our weather recording intervals... More about our weather records

Advertising

Kelowna weather history for previous 24 hours

 ConditionsComfort  
Time TempWeatherWind HumidityBarometerVisibility
5:00 AM
Mon, Mar 30
45 °FClear.5 mph87%30.06 "Hg9 mi
4:00 AM46 °FMostly cloudy.6 mph87%30.07 "Hg9 mi
3:00 AM48 °FMostly cloudy.No wind82%30.07 "Hg9 mi
2:00 AM48 °FOvercast.No wind82%30.08 "Hg9 mi
1:00 AM52 °FOvercast.2 mph72%30.08 "Hg9 mi
12:00 AM54 °FOvercast.6 mph67%30.09 "Hg9 mi
11:00 PM
Sun, Mar 29
52 °FOvercast.5 mph72%30.11 "Hg9 mi
10:00 PM52 °FMostly cloudy.5 mph77%30.10 "Hg9 mi
9:00 PM55 °FMostly cloudy.No wind63%30.09 "Hg9 mi
8:00 PM55 °FMostly cloudy.3 mph63%30.09 "Hg9 mi
7:00 PM57 °FOvercast.2 mph55%30.08 "Hg9 mi
6:00 PM59 °FOvercast.7 mph55%30.07 "Hg9 mi
5:00 PM59 °FOvercast.12 mph48%30.05 "Hg9 mi
4:00 PM59 °FOvercast.3 mph45%30.06 "Hg9 mi
3:00 PM59 °FPartly sunny.6 mph45%30.07 "Hg9 mi
2:00 PM59 °FMostly cloudy.6 mph42%30.09 "Hg9 mi
1:00 PM57 °FOvercast.2 mph44%30.10 "Hg9 mi
12:00 PM55 °FOvercast.2 mph44%30.11 "Hg9 mi
11:00 AM54 °FOvercast.5 mph47%30.14 "Hg9 mi
10:00 AM52 °FOvercast.5 mph54%30.15 "Hg9 mi
9:00 AM48 °FOvercast.No wind66%30.14 "Hg9 mi
8:00 AM43 °FOvercast.2 mph81%30.16 "Hg9 mi
7:00 AM41 °FPassing clouds.2 mph81%30.16 "Hg9 mi
6:00 AM43 °FOvercast.2 mph81%30.16 "Hg9 mi
Weather by CustomWeather, © 2015

See weather overviewHow to use our weather pages